Regional Weather Roundup
Issued by NWS

Home | Current Version | Previous Version | Graphics & Text | Print | Product List | Glossary On
Versions: 1 2 3 4 5 6 7 8 9 10 11 12 13 14 15 16 17 18 19 20 21 22 23 24 25 26 27 28 29 30 31 32 33 34 35 36 37 38 39 40 41 42 43 44 45 46 47 48 49 50
000
ASUS43 KTOP 190208
RWRKS

WEATHER ROUNDUP FOR KANSAS
NATIONAL WEATHER SERVICE GOODLAND KS
900 PM CDT WED OCT 18 2017

NOTE:  "FAIR" INDICATES FEW OR NO CLOUDS BELOW 12,000 FEET WITH NO
SIGNIFICANT WEATHER AND/OR OBSTRUCTIONS TO VISIBILITY.

KSZ001>006-013>018-027>032-041>047-190300-
NORTHWEST KANSAS

CITY           SKY/WX    TMP DP  RH WIND       PRES   REMARKS
GOODLAND       CLEAR     53  33  46 E9        30.11R
HAYS           CLOUDY    58  39  49 S5        30.05R
HILL CITY      CLEAR     58  39  49 N10       30.08R
RUSSELL        CLEAR     66  41  40 NE6       30.02R
$$

KSZ061>065-074>080-084>089-190300-
SOUTHWEST KANSAS

CITY           SKY/WX    TMP DP  RH WIND       PRES   REMARKS
DODGE CITY     CLOUDY    61  46  57 S7        30.04R
ELKHART          N/A     59  38  45 SE5         N/A
GARDEN CITY    PTCLDY    63  40  42 SE7       30.05R
GREAT BEND     CLOUDY    56  47  71 NW6       30.03R
LIBERAL        CLOUDY    65  49  56 E7        30.06R
PRATT          PTCLDY    67  47  48 S7        30.03R
$$

KSZ066>073-081>083-090>101-190300-
SOUTHEAST KANSAS

CITY           SKY/WX    TMP DP  RH WIND       PRES   REMARKS
CHANUTE        CLEAR     63  50  62 S10       30.06R
COFFEYVILLE    CLEAR     59  49  69 SE5       30.07R
HUTCHINSON     CLOUDY    61  51  70 SE7       30.02R
MEDICINE LODGE   N/A     67  48  50 S8        30.02R
NEWTON         PTCLDY    62  49  62 S12       30.03S
PARSONS        CLEAR     61  49  64 S5        30.07S
WICHITA INTL   CLOUDY    62  49  62 S9        30.02R
WICHITA JABRA  CLOUDY    63  49  60 S7        30.03R
WICHITA MCCONL CLOUDY    64  47  55 S10       30.03R
WINFIELD       PTCLDY    61  51  70 S9        30.05R
$$

KSZ007>012-019>026-033>040-048>060-102>105-190300-
NORTHEAST KANSAS

CITY           SKY/WX    TMP DP  RH WIND       PRES   REMARKS
CONCORDIA      CLEAR     62  52  69 CALM      30.02R
EMPORIA        CLEAR     62  49  62 S12       30.03R
LAWRENCE       CLEAR     57  50  77 E5        30.03R
MANHATTAN      CLEAR     55  51  86 CALM      30.02R
MARYSVILLE     CLEAR     55  50  82 CALM      30.02R
OLATHE IND     CLEAR     60  50  69 SE7       30.05R
OLATHE EXE     CLEAR     60  50  69 S6        30.05R
SALINA         CLEAR     63  53  70 E5        30.02R
TOPEKA BILLARD CLEAR     59  52  77 CALM      30.02R
TOPEKA FORBES  CLEAR     60  51  72 CALM      30.03R
$$



USA.gov is the U.S. government's official web portal to all federal, state and local government web resources and services.